Year,Month,Day,Hour,Minute,Value (Times are PST for temperature in C)
2013,08,10,00,00,21.00
2013,08,10,00,01,21.00
2013,08,10,00,02,21.00
2013,08,10,00,03,21.00
2013,08,10,00,04,20.90
2013,08,10,00,05,20.90
2013,08,10,00,06,20.90
2013,08,10,00,07,20.90
2013,08,10,00,08,20.90
2013,08,10,00,09,20.80
2013,08,10,00,10,20.80
2013,08,10,00,11,20.70
2013,08,10,00,12,20.70
2013,08,10,00,13,20.70
2013,08,10,00,14,20.60
2013,08,10,00,15,20.60
2013,08,10,00,16,20.50
2013,08,10,00,17,20.50
2013,08,10,00,18,20.50
2013,08,10,00,19,20.40
2013,08,10,00,20,20.40
2013,08,10,00,21,20.40
2013,08,10,00,22,20.40
2013,08,10,00,23,20.40
2013,08,10,00,24,20.40
2013,08,10,00,25,20.40
2013,08,10,00,26,20.40
2013,08,10,00,27,20.40
2013,08,10,00,28,20.50
2013,08,10,00,29,20.50
2013,08,10,00,30,20.60
2013,08,10,00,31,20.60
2013,08,10,00,32,20.70
2013,08,10,00,33,20.70
2013,08,10,00,34,20.70
2013,08,10,00,35,20.80
2013,08,10,00,36,20.80
2013,08,10,00,37,20.90
2013,08,10,00,38,20.90
2013,08,10,00,39,20.90
2013,08,10,00,40,21.00
2013,08,10,00,41,21.00
2013,08,10,00,42,20.90
2013,08,10,00,43,20.90
2013,08,10,00,44,20.90
2013,08,10,00,45,20.90
2013,08,10,00,46,20.90
2013,08,10,00,47,20.80
2013,08,10,00,48,20.80
2013,08,10,00,49,20.80
2013,08,10,00,50,20.80
2013,08,10,00,51,20.80
2013,08,10,00,52,20.70
2013,08,10,00,53,20.70
2013,08,10,00,54,20.70
2013,08,10,00,55,20.70
2013,08,10,00,56,20.70
2013,08,10,00,57,20.70
2013,08,10,00,58,20.70
2013,08,10,00,59,20.80
2013,08,10,01,00,20.90
2013,08,10,01,01,20.90
2013,08,10,01,02,21.00
2013,08,10,01,03,21.00
2013,08,10,01,04,21.00
2013,08,10,01,05,21.00
2013,08,10,01,06,21.00
2013,08,10,01,07,21.00
2013,08,10,01,08,21.10
2013,08,10,01,09,21.00
2013,08,10,01,10,21.00
2013,08,10,01,11,21.00
2013,08,10,01,12,21.00
2013,08,10,01,13,21.10
2013,08,10,01,14,21.10
2013,08,10,01,15,21.20
2013,08,10,01,16,21.20
2013,08,10,01,17,21.20
2013,08,10,01,18,21.20
2013,08,10,01,19,21.20
2013,08,10,01,20,21.30
2013,08,10,01,21,21.30
2013,08,10,01,22,21.30
2013,08,10,01,23,21.20
2013,08,10,01,24,21.20
2013,08,10,01,25,21.20
2013,08,10,01,26,21.20
2013,08,10,01,27,21.20
2013,08,10,01,28,21.20
2013,08,10,01,29,21.20
2013,08,10,01,30,21.20
2013,08,10,01,31,21.20
2013,08,10,01,32,21.20
2013,08,10,01,33,21.30
2013,08,10,01,34,21.30
2013,08,10,01,35,21.40
2013,08,10,01,36,21.40
2013,08,10,01,37,21.50
2013,08,10,01,38,21.60
2013,08,10,01,39,21.70
2013,08,10,01,40,21.80
2013,08,10,01,41,21.80
2013,08,10,01,42,21.90
2013,08,10,01,43,21.90
2013,08,10,01,44,22.00
2013,08,10,01,45,22.00
2013,08,10,01,46,22.10
2013,08,10,01,47,22.10
2013,08,10,01,48,22.20
2013,08,10,01,49,22.20
2013,08,10,01,50,22.20
2013,08,10,01,51,22.20
2013,08,10,01,52,22.20
2013,08,10,01,53,22.20
2013,08,10,01,54,22.20
2013,08,10,01,55,22.30
2013,08,10,01,56,22.30
2013,08,10,01,57,22.30
2013,08,10,01,58,22.30
2013,08,10,01,59,22.30
2013,08,10,02,00,22.30
2013,08,10,02,01,22.30
2013,08,10,02,02,22.30
2013,08,10,02,03,22.30
2013,08,10,02,04,22.30
2013,08,10,02,05,22.30
2013,08,10,02,06,22.40
2013,08,10,02,07,22.40
2013,08,10,02,08,22.40
2013,08,10,02,09,22.40
2013,08,10,02,10,22.40
2013,08,10,02,11,22.40
2013,08,10,02,12,22.40
2013,08,10,02,13,22.40
2013,08,10,02,14,22.40
2013,08,10,02,15,22.30
2013,08,10,02,16,22.40
2013,08,10,02,17,22.30
2013,08,10,02,18,22.30
2013,08,10,02,19,22.30
2013,08,10,02,20,22.30
2013,08,10,02,21,22.30
2013,08,10,02,22,22.30
2013,08,10,02,23,22.30
2013,08,10,02,24,22.30
2013,08,10,02,25,22.30
2013,08,10,02,26,22.30
2013,08,10,02,27,22.30
2013,08,10,02,28,22.30
2013,08,10,02,29,22.30
2013,08,10,02,30,22.30
2013,08,10,02,31,22.30
2013,08,10,02,32,22.30
2013,08,10,02,33,22.30
2013,08,10,02,34,22.30
2013,08,10,02,35,22.20
2013,08,10,02,36,22.20
2013,08,10,02,37,22.10
2013,08,10,02,38,22.10
2013,08,10,02,39,22.00
2013,08,10,02,40,22.00
2013,08,10,02,41,22.00
2013,08,10,02,42,22.00
2013,08,10,02,43,21.90
2013,08,10,02,44,21.90
2013,08,10,02,45,21.90
2013,08,10,02,46,21.80
2013,08,10,02,47,21.80
2013,08,10,02,48,21.70
2013,08,10,02,49,21.70
2013,08,10,02,50,21.60
2013,08,10,02,51,21.60
2013,08,10,02,52,21.50
2013,08,10,02,53,21.40
2013,08,10,02,54,21.40
2013,08,10,02,55,21.30
2013,08,10,02,56,21.30
2013,08,10,02,57,21.20
2013,08,10,02,58,21.20
2013,08,10,02,59,21.10
2013,08,10,03,00,21.10
2013,08,10,03,01,21.00
2013,08,10,03,02,21.00
2013,08,10,03,03,20.90
2013,08,10,03,04,20.90
2013,08,10,03,05,20.90
2013,08,10,03,06,20.80
2013,08,10,03,07,20.80
2013,08,10,03,08,20.80
2013,08,10,03,09,20.80
2013,08,10,03,10,20.80
2013,08,10,03,11,20.80
2013,08,10,03,12,20.80
2013,08,10,03,13,20.80
2013,08,10,03,14,20.80
2013,08,10,03,15,20.80
2013,08,10,03,16,20.80
2013,08,10,03,17,20.80
2013,08,10,03,18,20.80
2013,08,10,03,19,20.80
2013,08,10,03,20,20.80
2013,08,10,03,21,20.80
2013,08,10,03,22,20.70
2013,08,10,03,23,20.70
2013,08,10,03,24,20.70
2013,08,10,03,25,20.70
2013,08,10,03,26,20.60
2013,08,10,03,27,20.60
2013,08,10,03,28,20.60
2013,08,10,03,29,20.50
2013,08,10,03,30,20.50
2013,08,10,03,31,20.50
2013,08,10,03,32,20.40
2013,08,10,03,33,20.40
2013,08,10,03,34,20.30
2013,08,10,03,35,20.30
2013,08,10,03,36,20.30
2013,08,10,03,37,20.30
2013,08,10,03,38,20.20
2013,08,10,03,39,20.10
2013,08,10,03,40,20.10
2013,08,10,03,41,20.00
2013,08,10,03,42,20.00
2013,08,10,03,43,19.90
2013,08,10,03,44,19.80
2013,08,10,03,45,19.80
2013,08,10,03,46,19.70
2013,08,10,03,47,19.70
2013,08,10,03,48,19.60
2013,08,10,03,49,19.60
2013,08,10,03,50,19.50
2013,08,10,03,51,19.40
2013,08,10,03,52,19.30
2013,08,10,03,53,19.30
2013,08,10,03,54,19.20
2013,08,10,03,55,19.10
2013,08,10,03,56,19.10
2013,08,10,03,57,19.10
2013,08,10,03,58,19.00
2013,08,10,03,59,19.00
2013,08,10,04,00,19.00
2013,08,10,04,01,18.90
2013,08,10,04,02,18.90
2013,08,10,04,03,18.90
2013,08,10,04,04,18.90
2013,08,10,04,05,18.90
2013,08,10,04,06,18.90
2013,08,10,04,07,18.90
2013,08,10,04,08,18.90
2013,08,10,04,09,18.80
2013,08,10,04,10,18.80
2013,08,10,04,11,18.80
2013,08,10,04,12,18.80
2013,08,10,04,13,18.80
2013,08,10,04,14,18.80
2013,08,10,04,15,18.80
2013,08,10,04,16,18.80
2013,08,10,04,17,18.80
2013,08,10,04,18,18.80
2013,08,10,04,19,18.80
2013,08,10,04,20,18.80
2013,08,10,04,21,18.80
2013,08,10,04,22,18.80
2013,08,10,04,23,18.80
2013,08,10,04,24,18.80
2013,08,10,04,25,18.80
2013,08,10,04,26,18.80
2013,08,10,04,27,18.80
2013,08,10,04,28,18.80
2013,08,10,04,29,18.80
2013,08,10,04,30,18.80
2013,08,10,04,31,18.80
2013,08,10,04,32,18.80
2013,08,10,04,33,18.80
2013,08,10,04,34,18.80
2013,08,10,04,35,18.80
2013,08,10,04,36,18.70
2013,08,10,04,37,18.70
2013,08,10,04,38,18.70
2013,08,10,04,39,18.70
2013,08,10,04,40,18.70
2013,08,10,04,41,18.70
2013,08,10,04,42,18.60
2013,08,10,04,43,18.60
2013,08,10,04,44,18.60
2013,08,10,04,45,18.60
2013,08,10,04,46,18.60
2013,08,10,04,47,18.60
2013,08,10,04,48,18.60
2013,08,10,04,49,18.60
2013,08,10,04,50,18.60
2013,08,10,04,51,18.60
2013,08,10,04,52,18.60
2013,08,10,04,53,18.50
2013,08,10,04,54,18.50
2013,08,10,04,55,18.60
2013,08,10,04,56,18.60
2013,08,10,04,57,18.60
2013,08,10,04,58,18.60
2013,08,10,04,59,18.60
2013,08,10,05,00,18.60
2013,08,10,05,01,18.60
2013,08,10,05,02,18.50
2013,08,10,05,03,18.50
2013,08,10,05,04,18.50
2013,08,10,05,05,18.50
2013,08,10,05,06,18.50
2013,08,10,05,07,18.50
2013,08,10,05,08,18.50
2013,08,10,05,09,18.50
2013,08,10,05,10,18.50
2013,08,10,05,11,18.50
2013,08,10,05,12,18.50
2013,08,10,05,13,18.40
2013,08,10,05,14,18.40
2013,08,10,05,15,18.50
2013,08,10,05,16,18.50
2013,08,10,05,17,18.50
2013,08,10,05,18,18.50
2013,08,10,05,19,18.50
2013,08,10,05,20,18.50
2013,08,10,05,21,18.50
2013,08,10,05,22,18.50
2013,08,10,05,23,18.50
2013,08,10,05,24,18.50
2013,08,10,05,25,18.50
2013,08,10,05,26,18.50
2013,08,10,05,27,18.50
2013,08,10,05,28,18.40
2013,08,10,05,29,18.40
2013,08,10,05,30,18.40
2013,08,10,05,31,18.40
2013,08,10,05,32,18.30
2013,08,10,05,33,18.30
2013,08,10,05,34,18.20
2013,08,10,05,35,18.20
2013,08,10,05,36,18.20
2013,08,10,05,37,18.10
2013,08,10,05,38,18.10
2013,08,10,05,39,18.00
2013,08,10,05,40,18.00
2013,08,10,05,41,17.90
2013,08,10,05,42,17.90
2013,08,10,05,43,17.90
2013,08,10,05,44,17.90
2013,08,10,05,45,17.90
2013,08,10,05,46,17.90
2013,08,10,05,47,17.90
2013,08,10,05,48,17.90
2013,08,10,05,49,17.90
2013,08,10,05,50,17.80
2013,08,10,05,51,17.80
2013,08,10,05,52,17.80
2013,08,10,05,53,17.80
2013,08,10,05,54,17.80
2013,08,10,05,55,17.80
2013,08,10,05,56,17.80
2013,08,10,05,57,17.90
2013,08,10,05,58,17.90
2013,08,10,05,59,17.90
2013,08,10,06,00,18.00
2013,08,10,06,01,18.00
2013,08,10,06,02,18.00
2013,08,10,06,03,18.00
2013,08,10,06,04,18.00
2013,08,10,06,05,18.10
2013,08,10,06,06,18.10
2013,08,10,06,07,18.10
2013,08,10,06,08,18.10
2013,08,10,06,09,18.10
2013,08,10,06,10,18.10
2013,08,10,06,11,18.10
2013,08,10,06,12,18.10
2013,08,10,06,13,18.10
2013,08,10,06,14,18.10
2013,08,10,06,15,18.10
2013,08,10,06,16,18.00
2013,08,10,06,17,18.10
2013,08,10,06,18,18.10
2013,08,10,06,19,18.10
2013,08,10,06,20,18.10
2013,08,10,06,21,18.10
2013,08,10,06,22,18.10
2013,08,10,06,23,18.00
2013,08,10,06,24,18.00
2013,08,10,06,25,18.00
2013,08,10,06,26,18.00
2013,08,10,06,27,18.00
2013,08,10,06,28,18.00
2013,08,10,06,29,18.10
2013,08,10,06,30,18.10
2013,08,10,06,31,18.10
2013,08,10,06,32,18.10
2013,08,10,06,33,18.10
2013,08,10,06,34,18.20
2013,08,10,06,35,18.20
2013,08,10,06,36,18.20
2013,08,10,06,37,18.20
2013,08,10,06,38,18.20
2013,08,10,06,39,18.30
2013,08,10,06,40,18.30
2013,08,10,06,41,18.30
2013,08,10,06,42,18.30
2013,08,10,06,43,18.30
2013,08,10,06,44,18.30
2013,08,10,06,45,18.40
2013,08,10,06,46,18.40
2013,08,10,06,47,18.50
2013,08,10,06,48,18.50
2013,08,10,06,49,18.50
2013,08,10,06,50,18.60
2013,08,10,06,51,18.60
2013,08,10,06,52,18.60
2013,08,10,06,53,18.60
2013,08,10,06,54,18.60
2013,08,10,06,55,18.60
2013,08,10,06,56,18.60
2013,08,10,06,57,18.60
2013,08,10,06,58,18.60
2013,08,10,06,59,18.60
2013,08,10,07,00,18.60
2013,08,10,07,01,18.60
2013,08,10,07,02,18.70
2013,08,10,07,03,18.70
2013,08,10,07,04,18.70
2013,08,10,07,05,18.70
2013,08,10,07,06,18.70
2013,08,10,07,07,18.80
2013,08,10,07,08,18.80
2013,08,10,07,09,18.80
2013,08,10,07,10,18.80
2013,08,10,07,11,18.90
2013,08,10,07,12,18.90
2013,08,10,07,13,19.00
2013,08,10,07,14,19.10
2013,08,10,07,15,19.10
2013,08,10,07,16,19.10
2013,08,10,07,17,19.10
2013,08,10,07,18,19.20
2013,08,10,07,19,19.20
2013,08,10,07,20,19.10
2013,08,10,07,21,19.10
2013,08,10,07,22,19.10
2013,08,10,07,23,19.10
2013,08,10,07,24,19.10
2013,08,10,07,25,19.10
2013,08,10,07,26,19.10
2013,08,10,07,27,19.10
2013,08,10,07,28,19.10
2013,08,10,07,29,19.10
2013,08,10,07,30,19.10
2013,08,10,07,31,19.10
2013,08,10,07,32,19.10
2013,08,10,07,33,19.20
2013,08,10,07,34,19.20
2013,08,10,07,35,19.20
2013,08,10,07,36,19.10
2013,08,10,07,37,19.10
2013,08,10,07,38,19.20
2013,08,10,07,39,19.20
2013,08,10,07,40,19.10
2013,08,10,07,41,19.10
2013,08,10,07,42,19.10
2013,08,10,07,43,19.10
2013,08,10,07,44,19.10
2013,08,10,07,45,19.10
2013,08,10,07,46,19.20
2013,08,10,07,47,19.10
2013,08,10,07,48,19.20
2013,08,10,07,49,19.20
2013,08,10,07,50,19.20
2013,08,10,07,51,19.20
2013,08,10,07,52,19.20
2013,08,10,07,53,19.20
2013,08,10,07,54,19.10
2013,08,10,07,55,19.10
2013,08,10,07,56,19.10
2013,08,10,07,57,19.10
2013,08,10,07,58,19.00
2013,08,10,07,59,19.00
2013,08,10,08,00,19.00
2013,08,10,08,01,19.00
2013,08,10,08,02,19.00
2013,08,10,08,03,19.00
2013,08,10,08,04,19.00
2013,08,10,08,05,19.00
2013,08,10,08,06,19.00
2013,08,10,08,07,19.10
2013,08,10,08,08,19.10
2013,08,10,08,09,19.10
2013,08,10,08,10,19.10
2013,08,10,08,11,19.20
2013,08,10,08,12,19.20
2013,08,10,08,13,19.20
2013,08,10,08,14,19.20
2013,08,10,08,15,19.20
2013,08,10,08,16,19.20
2013,08,10,08,17,19.20
2013,08,10,08,18,19.20
2013,08,10,08,19,19.30
2013,08,10,08,20,19.30
2013,08,10,08,21,19.30
2013,08,10,08,22,19.30
2013,08,10,08,23,19.40
2013,08,10,08,24,19.40
2013,08,10,08,25,19.40
2013,08,10,08,26,19.50
2013,08,10,08,27,19.50
2013,08,10,08,28,19.60
2013,08,10,08,29,19.60
2013,08,10,08,30,19.70
2013,08,10,08,31,19.70
2013,08,10,08,32,19.70
2013,08,10,08,33,19.80
2013,08,10,08,34,19.80
2013,08,10,08,35,19.80
2013,08,10,08,36,19.80
2013,08,10,08,37,19.80
2013,08,10,08,38,19.80
2013,08,10,08,39,19.80
2013,08,10,08,40,19.90
2013,08,10,08,41,19.90
2013,08,10,08,42,20.00
2013,08,10,08,43,20.00
2013,08,10,08,44,20.10
2013,08,10,08,45,20.10
2013,08,10,08,46,20.20
2013,08,10,08,47,20.30
2013,08,10,08,48,20.40
2013,08,10,08,49,20.50
2013,08,10,08,50,20.50
2013,08,10,08,51,20.60
2013,08,10,08,52,20.70
2013,08,10,08,53,20.80
2013,08,10,08,54,20.80
2013,08,10,08,55,20.80
2013,08,10,08,56,20.80
2013,08,10,08,57,20.80
2013,08,10,08,58,20.80
2013,08,10,08,59,20.90
2013,08,10,09,00,20.90
2013,08,10,09,01,20.90
2013,08,10,09,02,20.90
2013,08,10,09,03,20.90
2013,08,10,09,04,21.00
2013,08,10,09,05,21.00
2013,08,10,09,06,21.00
2013,08,10,09,07,21.10
2013,08,10,09,08,21.10
2013,08,10,09,09,21.20
2013,08,10,09,10,21.20
2013,08,10,09,11,21.30
2013,08,10,09,12,21.40
2013,08,10,09,13,21.40
2013,08,10,09,14,21.50
2013,08,10,09,15,21.60
2013,08,10,09,16,21.60
2013,08,10,09,17,21.60
2013,08,10,09,18,21.50
2013,08,10,09,19,21.50
2013,08,10,09,20,21.50
2013,08,10,09,21,21.40
2013,08,10,09,22,21.40
2013,08,10,09,23,21.40
2013,08,10,09,24,21.40
2013,08,10,09,25,21.50
2013,08,10,09,26,21.50
2013,08,10,09,27,21.50
2013,08,10,09,28,21.50
2013,08,10,09,29,21.60
2013,08,10,09,30,21.60
2013,08,10,09,31,21.60
2013,08,10,09,32,21.60
2013,08,10,09,33,21.60
2013,08,10,09,34,21.70
2013,08,10,09,35,21.70
2013,08,10,09,36,21.70
2013,08,10,09,37,21.70
2013,08,10,09,38,21.70
2013,08,10,09,39,21.70
2013,08,10,09,40,21.70
2013,08,10,09,41,21.70
2013,08,10,09,42,21.60
2013,08,10,09,43,21.60
2013,08,10,09,44,21.50
2013,08,10,09,45,21.50
2013,08,10,09,46,21.40
2013,08,10,09,47,21.40
2013,08,10,09,48,21.30
2013,08,10,09,49,21.30
2013,08,10,09,50,21.30
2013,08,10,09,51,21.30
2013,08,10,09,52,21.30
2013,08,10,09,53,21.30
2013,08,10,09,54,21.30
2013,08,10,09,55,21.30
2013,08,10,09,56,21.40
2013,08,10,09,57,21.40
2013,08,10,09,58,21.30
2013,08,10,09,59,21.30
2013,08,10,10,00,21.30
2013,08,10,10,01,21.30
2013,08,10,10,02,21.30
2013,08,10,10,03,21.30
2013,08,10,10,04,21.30
2013,08,10,10,05,21.30
2013,08,10,10,06,21.30
2013,08,10,10,07,21.30
2013,08,10,10,08,21.30
2013,08,10,10,09,21.20
2013,08,10,10,10,21.20
2013,08,10,10,11,21.10
2013,08,10,10,12,21.00
2013,08,10,10,13,21.00
2013,08,10,10,14,20.90
2013,08,10,10,15,20.90
2013,08,10,10,16,20.90
2013,08,10,10,17,20.90
2013,08,10,10,18,20.90
2013,08,10,10,19,20.80
2013,08,10,10,20,20.80
2013,08,10,10,21,20.80
2013,08,10,10,22,20.70
2013,08,10,10,23,20.70
2013,08,10,10,24,20.70
2013,08,10,10,25,20.70
2013,08,10,10,26,20.70
2013,08,10,10,27,20.70
2013,08,10,10,28,20.70
2013,08,10,10,29,20.70
2013,08,10,10,30,20.60
2013,08,10,10,31,20.60
2013,08,10,10,32,20.60
2013,08,10,10,33,20.50
2013,08,10,10,34,20.50
2013,08,10,10,35,20.40
2013,08,10,10,36,20.40
2013,08,10,10,37,20.40
2013,08,10,10,38,20.40
2013,08,10,10,39,20.50
2013,08,10,10,40,20.50
2013,08,10,10,41,20.50
2013,08,10,10,42,20.40
2013,08,10,10,43,20.40
2013,08,10,10,44,20.40
2013,08,10,10,45,20.40
2013,08,10,10,46,20.40
2013,08,10,10,47,20.40
2013,08,10,10,48,20.40
2013,08,10,10,49,20.40
2013,08,10,10,50,20.40
2013,08,10,10,51,20.50
2013,08,10,10,52,20.50
2013,08,10,10,53,20.40
2013,08,10,10,54,20.40
2013,08,10,10,55,20.40
2013,08,10,10,56,20.40
2013,08,10,10,57,20.40
2013,08,10,10,58,20.40
2013,08,10,10,59,20.50
2013,08,10,11,00,20.50
2013,08,10,11,01,20.60
2013,08,10,11,02,20.60
2013,08,10,11,03,20.60
2013,08,10,11,04,20.70
2013,08,10,11,05,20.70
2013,08,10,11,06,20.80
2013,08,10,11,07,20.80
2013,08,10,11,08,20.90
2013,08,10,11,09,20.90
2013,08,10,11,10,21.00
2013,08,10,11,11,21.00
2013,08,10,11,12,21.10
2013,08,10,11,13,21.10
2013,08,10,11,14,21.20
2013,08,10,11,15,21.20
2013,08,10,11,16,21.20
2013,08,10,11,17,21.20
2013,08,10,11,18,21.20
2013,08,10,11,19,21.20
2013,08,10,11,20,21.20
2013,08,10,11,21,21.20
2013,08,10,11,22,21.20
2013,08,10,11,23,21.30
2013,08,10,11,24,21.30
2013,08,10,11,25,21.30
2013,08,10,11,26,21.30
2013,08,10,11,27,21.30
2013,08,10,11,28,21.30
2013,08,10,11,29,21.30
2013,08,10,11,30,21.30
2013,08,10,11,31,21.30
2013,08,10,11,32,21.30
2013,08,10,11,33,21.30
2013,08,10,11,34,21.30
2013,08,10,11,35,21.30
2013,08,10,11,36,21.40
2013,08,10,11,37,21.40
2013,08,10,11,38,21.40
2013,08,10,11,39,21.40
2013,08,10,11,40,21.40
2013,08,10,11,41,21.30
2013,08,10,11,42,21.30
2013,08,10,11,43,21.30
2013,08,10,11,44,21.20
2013,08,10,11,45,21.20
2013,08,10,11,46,21.10
2013,08,10,11,47,21.10
2013,08,10,11,48,21.10
2013,08,10,11,49,21.00
2013,08,10,11,50,21.00
2013,08,10,11,51,21.00
2013,08,10,11,52,21.00
2013,08,10,11,53,21.00
2013,08,10,11,54,21.10
2013,08,10,11,55,21.10
2013,08,10,11,56,21.20
2013,08,10,11,57,21.20
2013,08,10,11,58,21.30
2013,08,10,11,59,21.30
2013,08,10,12,00,21.30
2013,08,10,12,01,21.30
2013,08,10,12,02,21.30
2013,08,10,12,03,21.30
2013,08,10,12,04,21.20
2013,08,10,12,05,21.20
2013,08,10,12,06,21.20
2013,08,10,12,07,21.10
2013,08,10,12,08,21.00
2013,08,10,12,09,21.00
2013,08,10,12,10,21.00
2013,08,10,12,11,21.00
2013,08,10,12,12,21.00
2013,08,10,12,13,21.00
2013,08,10,12,14,21.00
2013,08,10,12,15,21.00
2013,08,10,12,16,21.00
2013,08,10,12,17,21.00
2013,08,10,12,18,21.10
2013,08,10,12,19,21.10
2013,08,10,12,20,21.10
2013,08,10,12,21,21.10
2013,08,10,12,22,21.10
2013,08,10,12,23,21.00
2013,08,10,12,24,21.00
2013,08,10,12,25,20.90
2013,08,10,12,26,20.90
2013,08,10,12,27,20.90
2013,08,10,12,28,20.90
2013,08,10,12,29,20.90
2013,08,10,12,30,21.00
2013,08,10,12,31,21.00
2013,08,10,12,32,21.00
2013,08,10,12,33,21.10
2013,08,10,12,34,21.10
2013,08,10,12,35,21.10
2013,08,10,12,36,21.10
2013,08,10,12,37,21.20
2013,08,10,12,38,21.20
2013,08,10,12,39,21.20
2013,08,10,12,40,21.30
2013,08,10,12,41,21.30
2013,08,10,12,42,21.30
2013,08,10,12,43,21.30
2013,08,10,12,44,21.30
2013,08,10,12,45,21.30
2013,08,10,12,46,21.30
2013,08,10,12,47,21.30
2013,08,10,12,48,21.20
2013,08,10,12,49,21.10
2013,08,10,12,50,21.10
2013,08,10,12,51,21.10
2013,08,10,12,52,21.00
2013,08,10,12,53,21.00
2013,08,10,12,54,21.00
2013,08,10,12,55,21.00
2013,08,10,12,56,21.10
2013,08,10,12,57,21.10
2013,08,10,12,58,21.20
2013,08,10,12,59,21.20
2013,08,10,13,00,21.30
2013,08,10,13,01,21.30
2013,08,10,13,02,21.30
2013,08,10,13,03,21.30
2013,08,10,13,04,21.40
2013,08,10,13,05,21.40
2013,08,10,13,06,21.40
2013,08,10,13,07,21.40
2013,08,10,13,08,21.50
2013,08,10,13,09,21.60
2013,08,10,13,10,21.60
2013,08,10,13,11,21.70
2013,08,10,13,12,21.80
2013,08,10,13,13,21.80
2013,08,10,13,14,21.90
2013,08,10,13,15,22.00
2013,08,10,13,16,22.10
2013,08,10,13,17,22.20
2013,08,10,13,18,22.30
2013,08,10,13,19,22.40
2013,08,10,13,20,22.40
2013,08,10,13,21,22.50
2013,08,10,13,22,22.60
2013,08,10,13,23,22.60
2013,08,10,13,24,22.60
2013,08,10,13,25,22.70
2013,08,10,13,26,22.70
2013,08,10,13,27,22.70
2013,08,10,13,28,22.60
2013,08,10,13,29,22.50
2013,08,10,13,30,22.40
2013,08,10,13,31,22.30
2013,08,10,13,32,22.20
2013,08,10,13,33,22.10
2013,08,10,13,34,22.00
2013,08,10,13,35,21.80
2013,08,10,13,36,21.70
2013,08,10,13,37,21.50
2013,08,10,13,38,21.40
2013,08,10,13,39,21.30
2013,08,10,13,40,21.20
2013,08,10,13,41,21.10
2013,08,10,13,42,21.10
2013,08,10,13,43,21.10
2013,08,10,13,44,21.00
2013,08,10,13,45,20.90
2013,08,10,13,46,20.90
2013,08,10,13,47,20.90
2013,08,10,13,48,21.00
2013,08,10,13,49,21.00
2013,08,10,13,50,21.10
2013,08,10,13,51,21.10
2013,08,10,13,52,21.10
2013,08,10,13,53,21.10
2013,08,10,13,54,21.10
2013,08,10,13,55,21.10
2013,08,10,13,56,21.20
2013,08,10,13,57,21.20
2013,08,10,13,58,21.20
2013,08,10,13,59,21.20
2013,08,10,14,00,21.20
2013,08,10,14,01,21.20
2013,08,10,14,02,21.20
2013,08,10,14,03,21.20
2013,08,10,14,04,21.20
2013,08,10,14,05,21.20
2013,08,10,14,06,21.20
2013,08,10,14,07,21.20
2013,08,10,14,08,21.20
2013,08,10,14,09,21.10
2013,08,10,14,10,21.10
2013,08,10,14,11,21.10
2013,08,10,14,12,21.10
2013,08,10,14,13,21.10
2013,08,10,14,14,21.10
2013,08,10,14,15,21.10
2013,08,10,14,16,21.10
2013,08,10,14,17,21.20
2013,08,10,14,18,21.20
2013,08,10,14,19,21.20
2013,08,10,14,20,21.30
2013,08,10,14,21,21.30
2013,08,10,14,22,21.30
2013,08,10,14,23,21.30
2013,08,10,14,24,21.30
2013,08,10,14,25,21.40
2013,08,10,14,26,21.40
2013,08,10,14,27,21.40
2013,08,10,14,28,21.40
2013,08,10,14,29,21.40
2013,08,10,14,30,21.30
2013,08,10,14,31,21.30
2013,08,10,14,32,21.30
2013,08,10,14,33,21.40
2013,08,10,14,34,21.40
2013,08,10,14,35,21.40
2013,08,10,14,36,21.40
2013,08,10,14,37,21.40
2013,08,10,14,38,21.40
2013,08,10,14,39,21.40
2013,08,10,14,40,21.40
2013,08,10,14,41,21.50
2013,08,10,14,42,21.50
2013,08,10,14,43,21.60
2013,08,10,14,44,21.60
2013,08,10,14,45,21.60
2013,08,10,14,46,21.70
2013,08,10,14,47,21.70
2013,08,10,14,48,21.70
2013,08,10,14,49,21.80
2013,08,10,14,50,21.80
2013,08,10,14,51,21.90
2013,08,10,14,52,21.90
2013,08,10,14,53,22.00
2013,08,10,14,54,22.00
2013,08,10,14,55,22.00
2013,08,10,14,56,22.10
2013,08,10,14,57,22.10
2013,08,10,14,58,22.10
2013,08,10,14,59,22.10
2013,08,10,15,00,22.10
2013,08,10,15,01,22.20
2013,08,10,15,02,22.20
2013,08,10,15,03,22.20
2013,08,10,15,04,22.20
2013,08,10,15,05,22.30
2013,08,10,15,06,22.30
2013,08,10,15,07,22.30
2013,08,10,15,08,22.40
2013,08,10,15,09,22.40
2013,08,10,15,10,22.40
2013,08,10,15,11,22.50
2013,08,10,15,12,22.50
2013,08,10,15,13,22.50
2013,08,10,15,14,22.50
2013,08,10,15,15,22.50
2013,08,10,15,16,22.50
2013,08,10,15,17,22.50
2013,08,10,15,18,22.50
2013,08,10,15,19,22.60
2013,08,10,15,20,22.60
2013,08,10,15,21,22.60
2013,08,10,15,22,22.60
2013,08,10,15,23,22.70
2013,08,10,15,24,22.70
2013,08,10,15,25,22.80
2013,08,10,15,26,22.80
2013,08,10,15,27,22.90
2013,08,10,15,28,22.90
2013,08,10,15,29,22.90
2013,08,10,15,30,22.90
2013,08,10,15,31,22.90
2013,08,10,15,32,22.90
2013,08,10,15,33,22.90
2013,08,10,15,34,22.90
2013,08,10,15,35,22.80
2013,08,10,15,36,22.70
2013,08,10,15,37,22.70
2013,08,10,15,38,22.70
2013,08,10,15,39,22.70
2013,08,10,15,40,22.70
2013,08,10,15,41,22.70
2013,08,10,15,42,22.70
2013,08,10,15,43,22.70
2013,08,10,15,44,22.70
2013,08,10,15,45,22.70
2013,08,10,15,46,22.60
2013,08,10,15,47,22.60
2013,08,10,15,48,22.60
2013,08,10,15,49,22.60
2013,08,10,15,50,22.60
2013,08,10,15,51,22.60
2013,08,10,15,52,22.50
2013,08,10,15,53,22.60
2013,08,10,15,54,22.60
2013,08,10,15,55,22.60
2013,08,10,15,56,22.60
2013,08,10,15,57,22.60
2013,08,10,15,58,22.60
2013,08,10,15,59,22.60
2013,08,10,16,00,22.70
2013,08,10,16,01,22.70
2013,08,10,16,02,22.70
2013,08,10,16,03,22.70
2013,08,10,16,04,22.70
2013,08,10,16,05,22.80
2013,08,10,16,06,22.80
2013,08,10,16,07,22.80
2013,08,10,16,08,22.80
2013,08,10,16,09,22.80
2013,08,10,16,10,22.90
2013,08,10,16,11,22.90
2013,08,10,16,12,23.00
2013,08,10,16,13,23.00
2013,08,10,16,14,23.10
2013,08,10,16,15,23.10
2013,08,10,16,16,23.20
2013,08,10,16,17,23.30
2013,08,10,16,18,23.30
2013,08,10,16,19,23.30
2013,08,10,16,20,23.30
2013,08,10,16,21,23.30
2013,08,10,16,22,23.40
2013,08,10,16,23,23.40
2013,08,10,16,24,23.40
2013,08,10,16,25,23.40
2013,08,10,16,26,23.40
2013,08,10,16,27,23.40
2013,08,10,16,28,23.40
2013,08,10,16,29,23.40
2013,08,10,16,30,23.30
2013,08,10,16,31,23.20
2013,08,10,16,32,23.20
2013,08,10,16,33,23.10
2013,08,10,16,34,23.10
2013,08,10,16,35,23.10
2013,08,10,16,36,23.00
2013,08,10,16,37,23.00
2013,08,10,16,38,23.00
2013,08,10,16,39,22.90
2013,08,10,16,40,22.90
2013,08,10,16,41,22.90
2013,08,10,16,42,22.80
2013,08,10,16,43,22.80
2013,08,10,16,44,22.80
2013,08,10,16,45,22.80
2013,08,10,16,46,22.80
2013,08,10,16,47,22.80
2013,08,10,16,48,22.80
2013,08,10,16,49,22.80
2013,08,10,16,50,22.80
2013,08,10,16,51,22.80
2013,08,10,16,52,22.80
2013,08,10,16,53,22.80
2013,08,10,16,54,22.90
2013,08,10,16,55,22.90
2013,08,10,16,56,23.00
2013,08,10,16,57,23.00
2013,08,10,16,58,23.10
2013,08,10,16,59,23.10
2013,08,10,17,00,23.10
2013,08,10,17,01,23.10
2013,08,10,17,02,23.10
2013,08,10,17,03,23.10
2013,08,10,17,04,23.10
2013,08,10,17,05,23.10
2013,08,10,17,06,23.10
2013,08,10,17,07,23.10
2013,08,10,17,08,23.00
2013,08,10,17,09,23.00
2013,08,10,17,10,22.90
2013,08,10,17,11,22.90
2013,08,10,17,12,22.80
2013,08,10,17,13,22.80
2013,08,10,17,14,22.80
2013,08,10,17,15,22.80
2013,08,10,17,16,22.80
2013,08,10,17,17,22.70
2013,08,10,17,18,22.70
2013,08,10,17,19,22.60